Track STARLINK-1656 now! 10-day predictions STARLINK-1656 is classified as:
1 46353U 20062AE 21021.16668981 -.00000196 00000-0 57093-5 0 9998 2 46353 53.0553 147.1773 0001496 62.8970 266.1036 15.06394933 22108